sat.trackr.live / text

‹ back to catalog

JILIN-1 05

NORAD 43023 · 2017-074B

PAYLOAD ACTIVE UNKNOWN

§ Identity

Operator
Country
PRC
Launch date
2017-11-21
Launch site
TAISC
Launch vehicle
Mass (kg)
RCS (m²)

External: N2YO · Heavens-Above · Gunter

§ Orbital elements

Epoch: 2026-09-20T04:40:10.129152Z

Period
93.80 min
Inclination
97.4906°
Eccentricity
0.0003684
Mean motion
15.35185859 rev/d
Perigee alt
457.8 km
Apogee alt
462.9 km
Semi-major
6,838.5 km
B*
1.8800e-4
RAAN
10.7486°
Arg perigee
245.2990°
Mean anomaly
114.7869°
Rev number
48,857

§ Raw data

JILIN-1 051 43023U 17074B   26263.19456168  .00006339  00000+0  18800-3 0  99902 43023  97.4906  10.7486 0003684 245.2990 114.7869 15.35185859488575

JSON: /api/v1/satellites/43023 · /tle

For live sub-satellite position, see the globe view (requires WebGL).

§ Visibility from observer

Set your observer location to see the next 7 days of passes ≥ 10°. The values pass through the URL so the page stays shareable.

No JS? Fill the form by hand. The geolocation button needs JavaScript.

§ Radio — SatNOGS DB

ModeDescriptionDownlinkUplink
BPSK Telemetry 2.228 GHz

1 transmitter · refreshed weekly from db.satnogs.org